{"data":{"norad_id":60523,"epoch":"2026-06-15T02:37:46.472160Z","epoch_age_seconds":8703628,"freshness":"OLD","line1":"1 60523U 24149BH  26166.10956565  .08494645  25249-5  54306-3 0  9992","line2":"2 60523  97.3587 267.1148 0014664 263.0313  96.9318 16.40205066103117","mean_motion":16.40205066,"eccentricity":0.0014664,"inclination_deg":97.3587,"raan_deg":267.1148,"arg_perigee_deg":263.0313,"mean_anomaly_deg":96.9318,"bstar":0.00054306,"rev_number":10311,"period_min":87.793900278077,"perigee_km":155.66182615405,"apogee_km":174.85229225088,"semimajor_km":6543.3940592025,"source":"CELESTRAK","updated_at":"2026-06-16T09:00:24.606578Z"}}